FW4023 Weather Reports


time (UTC)temp
C
wind
direction
speed
KPH
gust
KPH
rain 1hr
cm
rain 24hr
cm
rain mn
cm
humidity
%
barometer
mb
20260506134003 12 44 1.6 9.7 0.00 0.00 0.00 72 1029.7
20260506133003 12 42 0.0 4.8 0.00 0.00 0.00 72 1029.6
20260506132024 12 42 1.6 4.8 0.00 0.00 0.00 73 1029.6
20260506131003 12 43 0.0 3.2 0.00 0.00 0.00 73 1029.6
20260506130025 12 43 0.0 4.8 0.00 0.00 0.00 73 1029.6
20260506125004 12 44 0.0 4.8 0.00 0.00 0.00 73 1029.6
20260506124004 13 45 0.0 1.6 0.00 0.00 0.00 73 1029.5
20260506123004 13 11 0.0 3.2 0.00 0.00 0.00 73 1029.4
20260506122003 13 336 0.0 1.6 0.00 0.00 0.00 73 1029.4
20260506121003 13 336 0.0 3.2 0.00 0.00 0.00 73 1029.3
20260506120004 13 336 1.6 4.8 0.00 0.00 0.00 73 1029.2
20260506115003 13 283 1.6 4.8 0.00 0.00 0.00 73 1029.2
20260506114003 13 237 1.6 4.8 0.00 0.00 0.00 73 1029.1
20260506113003 13 210 1.6 4.8 0.00 0.00 0.00 72 1029.0
20260506112025 14 210 0.0 1.6 0.00 0.00 0.00 71 1029.0
20260506111003 14 210 0.0 3.2 0.00 0.00 0.00 71 1028.9
20260506110004 14 210 1.6 3.2 0.00 0.00 0.00 70 1028.8
20260506105003 15 210 1.6 3.2 0.00 0.00 0.00 69 1028.9
20260506104025 15 210 1.6 3.2 0.00 0.00 0.00 68 1028.8
20260506103003 15 210 0.0 1.6 0.00 0.00 0.00 67 1028.8
20260506102024 16 210 1.6 3.2 0.00 0.00 0.00 67 1028.7
20260506101003 16 210 1.6 1.6 0.00 0.00 0.00 66 1028.6
20260506100004 16 210 0.0 3.2 0.00 0.00 0.00 65 1028.5
20260506095025 17 210 1.6 3.2 0.00 0.00 0.00 64 1028.4
20260506094004 17 210 0.0 3.2 0.00 0.00 0.00 62 1028.4
20260506093025 17 210 0.0 3.2 0.00 0.00 0.00 61 1028.3
20260506092004 18 210 0.0 4.8 0.00 0.00 0.00 60 1028.2
20260506091004 18 170 1.6 9.7 0.00 0.00 0.00 58 1028.1
20260506090025 18 180 1.6 6.4 0.00 0.00 0.00 57 1028.1
20260506085004 19 131 1.6 6.4 0.00 0.00 0.00 57 1028.1
20260506084004 19 246 1.6 9.7 0.00 0.00 0.00 56 1028.0
20260506083004 19 192 3.2 11.3 0.00 0.00 0.00 56 1028.0
20260506082025 20 202 4.8 9.7 0.00 0.00 0.00 55 1028.0
20260506081004 20 163 3.2 11.3 0.00 0.00 0.00 56 1027.9
20260506073025 20 123 3.2 14.5 0.00 0.00 0.00 57 1027.9
20260506072004 20 109 3.2 14.5 0.00 0.00 0.00 58 1028.0
20260506071004 20 90 1.6 6.4 0.00 0.00 0.00 57 1027.9
20260506062004 20 146 6.4 16.1 0.00 0.00 0.00 58 1028.0
20260506061024 20 103 4.8 11.3 0.00 0.00 0.00 59 1028.1
20260506051003 19 197 4.8 12.9 0.00 0.00 0.00 61 1028.3
20260506045025 19 121 3.2 14.5 0.00 0.00 0.00 63 1028.4
20260506044025 18 118 4.8 16.1 0.00 0.00 0.00 62 1028.6
20260506043003 18 63 4.8 16.1 0.00 0.00 0.00 63 1028.8
20260506042004 18 77 6.4 19.3 0.00 0.00 0.00 63 1029.0
20260506041004 18 63 3.2 14.5 0.00 0.00 0.00 65 1029.1
20260506040004 18 133 4.8 17.7 0.00 0.00 0.00 65 1029.2
20260506035004 18 91 4.8 14.5 0.00 0.00 0.00 66 1029.3
20260506034004 17 60 4.8 19.3 0.00 0.00 0.00 67 1029.4
20260506033004 17 357 4.8 17.7 0.00 0.00 0.00 68 1029.6
20260506032003 17 120 4.8 20.9 0.00 0.00 0.00 68 1029.7
20260506031003 17 355 4.8 11.3 0.00 0.00 0.00 69 1029.8
20260506030004 17 59 4.8 14.5 0.00 0.00 0.00 70 1029.9
20260506025003 16 93 6.4 22.5 0.00 0.00 0.00 71 1029.9
20260506024003 16 45 4.8 14.5 0.00 0.00 0.00 73 1029.9
20260506023003 16 173 3.2 11.3 0.00 0.00 0.00 74 1029.9
20260506022024 15 325 3.2 9.7 0.00 0.00 0.00 75 1030.0
20260506021003 15 320 3.2 14.5 0.00 0.00 0.00 76 1030.1
20260506020004 15 122 3.2 16.1 0.00 0.00 0.00 77 1030.1
20260506015003 14 131 3.2 12.9 0.00 0.00 0.00 79 1030.2
20260506014003 14 119 3.2 14.5 0.00 0.00 0.00 80 1030.1
20260506013004 13 102 4.8 19.3 0.00 0.00 0.00 81 1030.2
20260506012004 13 93 3.2 14.5 0.00 0.00 0.00 84 1030.2
20260506011003 12 105 3.2 14.5 0.00 0.00 0.00 85 1030.1
20260506010005 12 188 3.2 9.7 0.00 0.00 0.00 86 1030.2
20260506005024 12 212 3.2 12.9 0.00 0.00 0.00 87 1030.1
20260506004003 11 169 3.2 8.0 0.00 0.00 0.00 87 1030.0
20260506003004 11 90 1.6 11.3 0.00 0.00 0.00 88 1029.8
20260506002025 11 191 1.6 11.3 0.00 0.00 0.00 88 1029.7
20260506001004 10 76 1.6 6.4 0.00 0.03 0.00 88 1029.6
20260506000004 10 167 1.6 8.0 0.00 0.03 0.00 88 1029.5
20260505235004 10 209 1.6 6.4 0.00 0.03 0.00 88 1029.4
20260505234004 10 237 1.6 8.0 0.00 0.03 0.00 88 1029.3
20260505233004 10 246 1.6 4.8 0.00 0.03 0.00 87 1029.2
20260505232004 10 354 1.6 6.4 0.00 0.03 0.00 87 1029.1
20260505231004 10 42 1.6 4.8 0.00 0.03 0.00 87 1029.0
20260505230025 10 67 1.6 4.8 0.00 0.03 0.00 87 1028.9
20260505225004 10 3 1.6 6.4 0.00 0.03 0.00 87 1028.9
20260505224004 10 93 1.6 8.0 0.00 0.03 0.00 86 1028.8
20260505223025 10 61 1.6 6.4 0.00 0.03 0.00 86 1028.7
20260505222004 10 82 1.6 11.3 0.00 0.03 0.00 86 1028.6
20260505221025 10 45 1.6 6.4 0.00 0.03 0.00 86 1028.4
20260505220004 10 50 1.6 9.7 0.00 0.03 0.00 85 1028.3
20260505215004 10 352 1.6 9.7 0.00 0.03 0.00 85 1028.3
20260505214004 10 116 1.6 12.9 0.00 0.03 0.00 85 1028.2
20260505213004 10 272 1.6 6.4 0.00 0.03 0.00 85 1028.2
20260505212004 10 88 1.6 4.8 0.00 0.03 0.00 85 1028.2
20260505211004 10 70 0.0 4.8 0.00 0.03 0.00 85 1028.2
20260505210004 10 33 1.6 4.8 0.00 0.03 0.00 84 1028.1
20260505205003 10 41 1.6 9.7 0.00 0.03 0.00 84 1028.0
20260505204003 10 265 1.6 4.8 0.00 0.03 0.00 84 1027.9
20260505203003 10 246 1.6 9.7 0.00 0.03 0.00 84 1027.9
20260505202004 10 344 1.6 9.7 0.00 0.03 0.00 83 1027.8
20260505201003 10 332 1.6 3.2 0.00 0.03 0.00 83 1027.8
20260505200004 11 3 1.6 9.7 0.00 0.03 0.00 82 1027.8
20260505195003 11 323 1.6 11.3 0.00 0.03 0.00 82 1027.7
20260505194003 11 273 1.6 6.4 0.00 0.03 0.00 82 1027.8
20260505193003 11 5 1.6 6.4 0.00 0.03 0.00 81 1027.8
20260505192004 11 174 1.6 9.7 0.00 0.03 0.00 81 1027.7
20260505191004 11 343 1.6 6.4 0.00 0.03 0.00 80 1027.7
20260505190004 11 96 1.6 4.8 0.00 0.03 0.00 80 1027.6
20260505185004 11 124 1.6 6.4 0.00 0.03 0.00 79 1027.5
20260505184004 11 67 1.6 11.3 0.00 0.03 0.00 79 1027.5
20260505183004 11 81 1.6 6.4 0.00 0.03 0.00 78 1027.5
20260505182003 11 52 1.6 4.8 0.00 0.03 0.00 78 1027.5
20260505181024 11 26 1.6 6.4 0.00 0.03 0.00 78 1027.4
20260505180004 11 90 1.6 6.4 0.00 0.03 0.00 77 1027.4
20260505175003 11 135 1.6 12.9 0.00 0.03 0.00 77 1027.3
20260505174003 11 318 1.6 6.4 0.00 0.03 0.00 77 1027.3
20260505173004 11 324 1.6 8.0 0.00 0.03 0.00 77 1027.3
20260505172025 11 340 1.6 8.0 0.00 0.03 0.00 77 1027.3
20260505171003 12 1 1.6 6.4 0.00 0.03 0.00 77 1027.2
20260505170003 12 30 1.6 4.8 0.00 0.03 0.00 77 1027.1
20260505165003 12 28 1.6 4.8 0.00 0.03 0.00 77 1027.2
20260505164004 12 321 3.2 8.0 0.00 0.03 0.00 77 1027.0
20260505163004 12 349 1.6 8.0 0.00 0.03 0.00 77 1027.0
20260505162003 12 277 1.6 4.8 0.00 0.03 0.00 77 1027.0
20260505161004 12 262 0.0 4.8 0.00 0.03 0.00 77 1026.9
20260505153004 12 45 3.2 6.4 0.00 0.03 0.03 77 1026.9
20260505152004 12 38 1.6 8.0 0.00 0.03 0.03 77 1026.9
20260505151004 12 22 1.6 6.4 0.00 0.03 0.03 77 1026.8